This is the latest recevied weather packets stored in our database for station/object DG2GGP-11. If no packets are shown the sender has not sent any weather packets the latest 1 day(s).
| Time | Temp. | Humidity | Pressure | Rain* | Wind** | Luminosity | Snow |
|---|---|---|---|---|---|---|---|
| 1778064557 | 15° C | 69% | 1006.5 hPa | 0 mm | - | 49 W/m² | - |
| 1778063957 | 15° C | 70% | 1006.6 hPa | 0 mm | - | 28 W/m² | - |
| 1778050757 | 11.11° C | 86% | 1006.9 hPa | 0 mm | - | 17 W/m² | - |
| 1778048957 | 9.44° C | 92% | 1006.9 hPa | 0 mm | - | 18 W/m² | - |
| 1778047157 | 7.22° C | 93% | 1007 hPa | 0 mm | - | 6 W/m² | - |
| 1778046557 | 6.67° C | 93% | 1007.1 hPa | 0 mm | - | 5 W/m² | - |
| 1778045357 | 6.11° C | 93% | 1007.1 hPa | 0 mm | - | 4 W/m² | - |
| 1778044757 | 5.56° C | 93% | 1007.2 hPa | 0 mm | - | 3 W/m² | - |
| 1778044157 | 5.56° C | 93% | 1007.3 hPa | 0 mm | - | 2 W/m² | - |
| 1778043556 | 5.56° C | 93% | 1007.3 hPa | 0 mm | - | 2 W/m² | - |
| 1778041157 | 5.56° C | 93% | 1007.6 hPa | 0 mm | - | 0 W/m² | - |
| 1778040556 | 5.56° C | 93% | 1007.6 hPa | 0 mm | - | 0 W/m² | - |
| 1778039957 | 5.56° C | 93% | 1007.6 hPa | 0 mm | - | 0 W/m² | - |
| 1778039357 | 6.11° C | 93% | 1007.4 hPa | 0 mm | - | 0 W/m² | - |
| 1778038157 | 6.11° C | 93% | 1007.5 hPa | 0 mm | - | 0 W/m² | - |
| 1778037557 | 6.11° C | 93% | 1007.6 hPa | 0 mm | - | 0 W/m² | - |
| 1778036957 | 6.11° C | 93% | 1007.8 hPa | 0 mm | - | 0 W/m² | - |
| 1778036357 | 6.11° C | 93% | 1007.8 hPa | 0 mm | - | 0 W/m² | - |
| 1778035757 | 6.11° C | 93% | 1008.1 hPa | 0 mm | - | 0 W/m² | - |
| 1778035157 | 6.11° C | 93% | 1008.2 hPa | 0 mm | - | 0 W/m² | - |
| 1778034557 | 6.11° C | 93% | 1008.3 hPa | 0 mm | - | 0 W/m² | - |
| 1778033957 | 6.67° C | 93% | 1008.2 hPa | 0 mm | - | 0 W/m² | - |
| 1778033357 | 6.67° C | 93% | 1008.3 hPa | 0 mm | - | 0 W/m² | - |
| 1778032157 | 6.67° C | 93% | 1008.5 hPa | 0 mm | - | 0 W/m² | - |
| 1778031557 | 6.67° C | 93% | 1008.5 hPa | 0 mm | - | 0 W/m² | - |
* Rain latest hour (hover to see other rain measurements)
** Current wind speed in m/s (hover to see current wind gust speed)